Weather History for Port Hardy, BC

Change the Weather History Date:

Saturday, March 16, 2013

  Actual Average Record
Temperature  
Mean Temperature 39 °F -  
Max Temperature 41 °F 49 °F 50 °F (1998)
Min Temperature 37 °F 36 °F 30 °F (2002)
Degree Days  
Heating Degree Days 26    
Moisture  
Dew Point 37 °F    
Average Humidity 91    
Maximum Humidity 100    
Minimum Humidity 81    
Precipitation  
Precipitation 0.12 in 0.17 in - ()
Sea Level Pressure  
Sea Level Pressure 30.00 in    
Wind  
Wind Speed 4 mph ()    
Max Wind Speed 14 mph    
Max Gust Speed -    
Visibility 15.7 miles    
Events Rain    
Averages and records for this station are not official NWS values.
T = Trace of Precipitation, MM = Missing Value Source: Averaged Metar Reports

Daily Weather History Graph

Daily Weather History Graph

Search for Another Location

Airport:

Trip Planner

Search our weather history database for the weather conditions in past years. The results will help you decide how hot, cold, wet, or windy it might be!

Date:

Astronomy

Mar. 16, 2013 Rise Set
Actual Time 7:40 AM PDT 7:36 PM PDT
Civil Twilight 7:07 AM PDT 8:09 PM PDT
Nautical Twilight 6:29 AM PDT 8:47 PM PDT
Astronomical Twilight 5:49 AM PDT 9:27 PM PDT
Moon 9:41 AM PDT (3/16) 12:26 AM PDT (3/16)
Length of Visible Light 13h 01m
Length of Day
11h 56m
Waxing Crescent, 24% of the Moon is Illuminated
Mar 16
Waxing Crescent
Mar 19
First Quarter
Mar 27
Full
Apr 2
Last Quarter
Apr 10
New

Hourly Weather History & Observations

Time (PDT) Temp. Windchill Dew Point Humidity Pressure Visibility Wind Dir Wind Speed Gust Speed Precip Events Conditions
12:00 AM 41.0 °F - 39.2 °F 93% 30.12 in 15.0 mi Calm Calm - N/A Rain Light Rain Showers
1:00 AM 41.0 °F - 39.2 °F 93% 30.12 in 15.0 mi Calm Calm - N/A   Overcast
2:00 AM 41.0 °F - 39.2 °F 93% 30.10 in 15.0 mi Calm Calm - N/A   Overcast
3:00 AM 41.0 °F 38.0 °F 39.2 °F 93% 30.09 in 15.0 mi WSW 4.6 mph - N/A   Overcast
4:00 AM 41.0 °F 39.0 °F 39.2 °F 93% 30.07 in 15.0 mi SW 3.5 mph - N/A   Overcast
5:00 AM 40 °F - 38 °F 91% 30.04 in 15 mi Calm Calm - -   Partly Cloudy
5:00 AM 39.2 °F - 39.2 °F 100% 30.04 in 15.0 mi Calm Calm - N/A   Overcast
6:00 AM 39.2 °F - 37.4 °F 93% 30.02 in 15.0 mi Calm Calm - N/A   Overcast
7:00 AM 39.2 °F 35.9 °F 37.4 °F 93% 29.99 in 15.0 mi SW 4.6 mph - N/A   Overcast
8:00 AM 39.2 °F 35.9 °F 37.4 °F 93% 29.99 in 15.0 mi SSW 4.6 mph - N/A   Overcast
9:00 AM 39.2 °F 34.2 °F 37.4 °F 93% 29.97 in 15.0 mi SSW 6.9 mph - N/A   Overcast
10:00 AM 39.2 °F 37.0 °F 37.4 °F 93% 29.98 in 15.0 mi SSW 3.5 mph - N/A   Overcast
10:18 AM - - - N/A% - 15.0 mi SW 4.6 mph - N/A Rain Light Rain Showers
11:00 AM 40 °F - 38 °F 89% 29.97 in 15 mi SW 5.8 mph - - Rain Light Rain Showers
11:00 AM 41.0 °F 37.1 °F 37.4 °F 87% 29.97 in 15.0 mi SW 5.8 mph - N/A Rain Light Rain Showers
11:40 AM - - - N/A% - 15.0 mi SW 5.8 mph - N/A   Overcast
12:00 PM 39.2 °F 34.2 °F 35.6 °F 87% 29.97 in 15.0 mi WSW 6.9 mph - N/A   Overcast
1:00 PM 41.0 °F 36.4 °F 35.6 °F 81% 29.96 in 15.0 mi WSW 6.9 mph - N/A   Overcast
1:26 PM - - - N/A% - 12.0 mi WNW 4.6 mph - N/A Rain Light Rain Showers
2:00 PM 39.2 °F 35.0 °F 35.6 °F 87% 29.96 in 12.0 mi WSW 5.8 mph - N/A Rain Light Rain Showers
3:00 PM 41.0 °F - 37.4 °F 87% 29.94 in 15.0 mi Calm Calm - N/A Rain Light Rain Showers
4:00 PM 39.2 °F 31.2 °F 37.4 °F 93% 29.94 in 15.0 mi NW 13.8 mph - N/A   Overcast
4:44 PM - - - N/A% - 20.0 mi WNW 6.9 mph - N/A   Mostly Cloudy
5:00 PM 40 °F - 37 °F 86% 29.95 in 19 mi NNW 8.1 mph - - Rain Light Rain Showers
5:00 PM 41.0 °F 35.8 °F 37.4 °F 87% 29.95 in 20.0 mi NNW 8.1 mph - N/A   Mostly Cloudy
6:00 PM 41.0 °F 35.2 °F 37.4 °F 87% 29.95 in 20.0 mi West 9.2 mph - N/A   Scattered Clouds
7:00 PM 39.2 °F 35.0 °F 37.4 °F 93% 29.96 in 20.0 mi WSW 5.8 mph - N/A   Scattered Clouds
8:00 PM 37.4 °F 32.1 °F 35.6 °F 93% 29.98 in 20.0 mi West 6.9 mph - N/A   Mostly Cloudy
8:45 PM - - - N/A% - 15.0 mi West 9.2 mph - N/A Rain Light Rain Showers
9:00 PM 37.4 °F 32.1 °F 35.6 °F 93% 30.00 in 15.0 mi WSW 6.9 mph - N/A Rain Light Rain Showers
10:00 PM 37.4 °F 30.8 °F 35.6 °F 93% 30.01 in 15.0 mi West 9.2 mph - N/A Rain Light Rain Showers
10:40 PM - - - N/A% - 15.0 mi WSW 5.8 mph - N/A   Mostly Cloudy
11:00 PM 37 °F - 35 °F 88% 30.03 in 15 mi SW 5.8 mph - - Rain Light Rain Showers
11:00 PM 37.4 °F 32.8 °F 35.6 °F 93% 30.03 in 15.0 mi SW 5.8 mph - N/A   Mostly Cloudy